This is the latest recevied weather packets stored in our database for station/object WD5U-1. If no packets are shown the sender has not sent any weather packets the latest 10 day(s).
| Time | Temp. | Humidity | Pressure | Rain* | Wind** | Luminosity | Snow |
|---|---|---|---|---|---|---|---|
| 1777786941 | 15° C | 71% | 1021.4 hPa | 0 mm | - | - | - |
| 1777786576 | 15.56° C | 70% | 1021.4 hPa | 0 mm | - | - | - |
| 1777785979 | 15.56° C | 70% | 1021.3 hPa | 0 mm | - | - | - |
| 1777784564 | 15.56° C | 70% | 1021.2 hPa | 0 mm | - | - | - |
| 1777784420 | 15.56° C | 70% | 1021.1 hPa | 0 mm | - | - | - |
| 1777784299 | 15.56° C | 70% | 1021.1 hPa | 0 mm | - | - | - |
| 1777783823 | 15.56° C | 69% | 1021.2 hPa | 0 mm | - | - | - |
| 1777783702 | 15.56° C | 69% | 1021.2 hPa | 0 mm | - | - | - |
| 1777783458 | 15.56° C | 70% | 1021.1 hPa | 0 mm | - | - | - |
| 1777782740 | 16.11° C | 69% | 1021.1 hPa | 0 mm | - | - | - |
| 1777781900 | 16.11° C | 69% | 1021.2 hPa | 0 mm | - | - | - |
| 1777781657 | 15.56° C | 69% | 1021.1 hPa | 0 mm | - | - | - |
| 1777781545 | 15.56° C | 69% | 1021 hPa | 0 mm | - | - | - |
| 1777781181 | 16.11° C | 69% | 1020.9 hPa | 0 mm | - | - | - |
| 1777781059 | 15.56° C | 69% | 1021.1 hPa | 0 mm | - | - | - |
| 1777780100 | 16.11° C | 67% | 1021.1 hPa | 0 mm | - | - | - |
| 1777779643 | 16.67° C | 66% | 1020.9 hPa | 0 mm | - | - | - |
| 1777778205 | 17.22° C | 64% | 1021 hPa | 0 mm | - | - | - |
| 1777777699 | 17.78° C | 62% | 1020.9 hPa | 0 mm | - | - | - |
| 1777776405 | 18.33° C | 60% | 1020.7 hPa | 0 mm | - | - | - |
| 1777776264 | 18.33° C | 59% | 1020.7 hPa | 0 mm | - | - | - |
| 1777775178 | 18.33° C | 60% | 1020.6 hPa | 0 mm | - | - | - |
| 1777774105 | 18.33° C | 59% | 1020.4 hPa | 0 mm | - | - | - |
| 1777773024 | 18.89° C | 57% | 1020.5 hPa | 0 mm | - | - | - |
| 1777772657 | 19.44° C | 55% | 1020.2 hPa | 0 mm | - | - | - |
* Rain latest hour (hover to see other rain measurements)
** Current wind speed in m/s (hover to see current wind gust speed)